Smyrna, TN

8:41 PM CDT on March 29, 2017 (GMT -0500)
Smyrna

Weather History for KMQY - April, 2013

Change the Weather History Date:

Wednesday, April 17, 2013

  Actual Average Record
Temperature  
Mean Temperature 74 °F -  
Max Temperature 86 °F 67 °F 86 °F (2013)
Min Temperature 63 °F 49 °F 34 °F (2011)
Cooling Degree Days 10    
Growing Degree Days 24 (Base 50)    
Moisture  
Dew Point 64 °F    
Average Humidity 74    
Maximum Humidity 100    
Minimum Humidity 46    
Precipitation  
Precipitation 0.00 in - - ()
Sea Level Pressure  
Sea Level Pressure 30.10 in    
Wind  
Wind Speed 4 mph (South)    
Max Wind Speed 14 mph    
Max Gust Speed 21 mph    
Visibility 10 miles    
Events Rain    
Averages and records for this station are not official NWS values.
T = Trace of Precipitation, MM = Missing Value Source: NWS Daily Summary

Daily Weather History Graph

Daily Weather History Graph

Search for Another Location

Airport or City:

Trip Planner

Search our weather history database for the weather conditions in past years. The results will help you decide how hot, cold, wet, or windy it might be!

Date:

Astronomy

Apr. 17, 2013 Rise Set
Actual Time 6:10 AM CDT 7:21 PM CDT
Civil Twilight 5:43 AM CDT 7:48 PM CDT
Nautical Twilight 5:11 AM CDT 8:19 PM CDT
Astronomical Twilight 4:39 AM CDT 8:52 PM CDT
Moon 11:27 AM CDT (4/17) 12:55 AM CDT (4/17)
Length of Visible Light 14h 04m
Length of Day
13h 11m
Waxing Crescent, 42% of the Moon is Illuminated
Apr 17
Waxing Crescent
Apr 18
First Quarter
Apr 25
Full
May 2
Last Quarter
May 9
New

Hourly Weather History & Observations

Time (CDT) Temp. Heat Index Dew Point Humidity Pressure Visibility Wind Dir Wind Speed Gust Speed Precip Events Conditions
12:56 AM 68.0 °F - 64.9 °F 90% 30.14 in 10.0 mi Calm Calm - 0.00 in   Clear
1:56 AM 64.9 °F - 63.9 °F 96% 30.15 in 10.0 mi Calm Calm - 0.00 in Rain Light Rain
2:56 AM 64.9 °F - 63.9 °F 96% 30.14 in 10.0 mi Calm Calm - 0.00 in Rain Light Rain
3:56 AM 63.9 °F - 63.0 °F 97% 30.14 in 7.0 mi Calm Calm - 0.00 in   Clear
4:56 AM 63.9 °F - 63.9 °F 100% 30.14 in 10.0 mi Calm Calm - N/A   Clear
5:56 AM 63.0 °F - 61.9 °F 96% 30.17 in 6.0 mi Calm Calm - N/A   Partly Cloudy
6:56 AM 63.0 °F - 61.9 °F 96% 30.19 in 10.0 mi Calm Calm - N/A   Clear
7:56 AM 70.9 °F - 65.8 °F 84% 30.19 in 10.0 mi South 6.9 mph - N/A   Scattered Clouds
8:56 AM 74.8 °F - 66.9 °F 76% 30.17 in 10.0 mi Variable 6.9 mph - N/A   Partly Cloudy
9:56 AM 77.9 °F - 68.0 °F 71% 30.16 in 10.0 mi SSW 9.2 mph - N/A   Scattered Clouds
10:56 AM 81.9 °F 85.2 °F 68.9 °F 65% 30.16 in 10.0 mi South 13.8 mph 20.7 mph N/A   Scattered Clouds
12:56 PM 84.9 °F 87.1 °F 65.8 °F 53% 30.12 in 10.0 mi South 9.2 mph - N/A   Scattered Clouds
1:56 PM 86.0 °F 87.6 °F 64.9 °F 49% 30.09 in 10.0 mi SW 10.4 mph - N/A   Clear
2:56 PM 86.9 °F 88.6 °F 64.9 °F 48% 30.07 in 10.0 mi WSW 10.4 mph - N/A   Clear
3:56 PM 86.9 °F 88.1 °F 63.9 °F 46% 30.05 in 10.0 mi Calm Calm - N/A   Partly Cloudy
4:56 PM 86.0 °F 87.6 °F 64.9 °F 49% 30.04 in 10.0 mi South 5.8 mph - N/A   Clear
5:21 PM 78.8 °F - 62.6 °F 57% 30.03 in 10.0 mi ESE 13.8 mph - N/A   Scattered Clouds
5:56 PM 74.8 °F - 63.0 °F 66% 30.04 in 10.0 mi SE 13.8 mph - N/A   Partly Cloudy
6:56 PM 73.9 °F - 61.9 °F 66% 30.04 in 10.0 mi SSE 10.4 mph - N/A   Clear
7:56 PM 72.0 °F - 61.9 °F 70% 30.04 in 10.0 mi SSE 8.1 mph - N/A   Clear
8:56 PM 72.0 °F - 63.0 °F 73% 30.03 in 10.0 mi South 9.2 mph - 0.00 in   Clear
9:56 PM 70.9 °F - 63.0 °F 76% 30.04 in 10.0 mi South 6.9 mph - N/A   Clear
10:02 PM 71.6 °F - 62.6 °F 73% 30.02 in 10.0 mi South 8.1 mph - N/A   Clear
10:56 PM 70.9 °F - 61.9 °F 73% 30.01 in 10.0 mi South 10.4 mph - N/A   Clear
11:56 PM 70.9 °F - 61.9 °F 73% 30.01 in 10.0 mi South 12.7 mph 18.4 mph N/A   Clear